Reflectivity
7 -4 1 3 7 3 -3 -8 -19 -20 -20 -20 -20 -20 -20 -20 -20 -20 -20 -20 -20 -20 -20 -20 -20 -20 -20 -20 -20 -20 10 -10 -13 7 -20 -20 -20 -20 -20 -20 -20 -20 -20 -20 -20
7 10 -0 -20 9 4 -19 2 -20 -20 -20 -20 -20 -20 -20 -20 -20 -20 -20 -20 -20 -20 -20 -20 -20 -20 -20 -20 -20 -20 11 -20 -20 3 4 -20 -4 -12 -5 -17 -20 -20 -19 -20 -20
5 -3 -9 10 8 5 -2 3 -11 -20 -20 -20 -20 -20 -20 -20 -20 -20 -20 -20 -20 -20 -20 -20 -20 -20 -20 -20 -20 -20 -1 -20 -20 -20 7 4 -20 -20 -12 31 34 -20 -20 -20 -20
-1 9 -16 -7 10 -1 -6 2 -1 -20 -20 -20 -20 -20 -20 -20 -20 -20 -20 -20 -20 -20 -20 -20 -20 -20 -20 -20 -20 -20 -20 -20 -20 -20 -20 -20 -20 -20 -20 33 12 -20 -20 -20 -20
2 9 10 -10 -3 -2 -2 -10 -11 -20 -20 -20 -20 -20 -20 -20 -20 -20 -20 -20 -20 -20 -20 -20 -20 -20 -13 -20 -20 -20 -20 -20 -20 -20 -20 -20 -20 -20 -20 -20 -20 -20 -20 -20 -20
10 7 10 -10 -4 -3 -7 -20 -13 -20 -20 -20 -20 -20 -20 -20 -20 -20 -20 -20 -20 -20 -20 -20 -20 -20 -20 -20 1 -18 -20 -20 -20 -20 -20 -20 -20 -20 -20 -20 -20 -20 -20 -20 -20
8 12 1 8 -20 -19 -5 -11 -20 -20 -20 -20 -20 -20 -20 -20 -20 -20 -20 -20 -20 -20 -20 -20 -20 -20 -20 -20 -20 -20 -20 -20 -20 -20 -20 -20 -20 -20 -20 -20 -20 -20 -20 -20 -20
-1 8 8 8 8 6 -16 -20 -20 -20 -20 -20 -20 -20 -20 -20 -20 -20 -20 -20 -20 -20 -20 -20 -20 -20 -20 -20 -20 -20 -20 0 -19 -20 -20 -20 -14 -20 -20 -20 -20 -20 -20 -20 -20
-8 1 -9 -1 -5 -20 -20 -20 -20 -20 -20 -20 -20 -20 -20 -20 -20 -20 -20 -20 -20 -20 -20 -20 -20 -20 -20 -20 -20 -20 -15 -12 -4 -20 -20 -20 14 -20 -20 -20 -20 -20 -20 -20 -20
1 0 -11 -7 -20 -20 -20 -18 -20 -9 -8 -20 -20 -20 -20 -20 -20 -20 -20 -20 -20 -20 -20 -20 -20 -20 -20 -20 9 -6 13 -20 -14 -20 -20 -20 -20 -20 -20 -20 -20 -20 -20 7 26
-0 7 0 -20 -20 -20 -20 -20 -20 -20 -20 -20 -20 -20 -20 -20 -20 -20 -20 -20 -20 -20 -20 -20 -20 -20 -20 6 -17 -4 -20 -20 -20 -20 -20 -20 -20 -20 -20 -20 -20 -20 -20 -20 29
-16 -10 -20 -20 -20 -20 -20 -20 -20 -20 -20 -20 -20 -20 -20 -20 -20 -20 -20 -20 -20 -20 -20 -20 -20 -20 -2 -20 -20 -20 -20 -16 -20 -20 -20 -20 -20 -20 -20 -20 -20 -20 -20 -20 -20
5 1 -20 -20 -20 -20 -20 -20 -20 -20 -20 -20 -20 -20 -20 -20 -20 -20 -20 -20 -20 -20 -20 -20 -20 -20 -20 -20 -20 -20 -20 11 -18 -19 -20 -20 -3 -14 -20 -20 -20 -20 -20 -20 -20
9 5 -20 -20 -15 -20 -20 -20 -20 -20 -20 -20 -20 -20 -20 -20 -20 -20 -20 -20 -20 -20 -20 -20 -20 -20 -20 -20 -20 -20 -19 -20 -20 -20 13 1 -5 21 -8 -20 -20 -20 -20 -20 -20
-5 -18 -20 -20 -20 -20 -20 -20 -20 -20 -20 -20 -20 -20 -20 -20 -20 -20 -20 -20 -20 -20 -20 -20 -20 -20 -20 -20 -20 -15 -20 -20 -20 -20 -20 -13 9 47 6 -20 -20 -20 -20 -20 -20
-2 -20 -16 -20 -20 -20 -20 -20 -20 -20 -20 -20 -20 -20 -20 -20 -20 -20 -20 -20 -20 -20 -20 -20 -20 -20 -20 -20 -20 -20 -20 -20 -20 -20 -6 -20 -18 18 18 -20 -20 -20 -20 -20 -20
6 1 -2 -20 -20 -20 -20 -20 -20 -20 -20 -20 -20 -20 -20 -20 -20 -20 -20 -20 -20 -20 -20 -20 -20 -20 -20 -20 -20 -20 -20 -0 -16 -20 5 10 -20 24 20 -19 -20 -20 -20 -20 -20
-20 -14 -20 -20 -20 -20 -20 -20 -20 -20 -20 -20 -20 -20 -20 -20 -20 -20 -20 -20 -20 -20 -20 -20 -20 -20 -20 -20 -20 -20 -19 15 18 22 -2 -5 -12 22 -18 -20 -20 -20 -20 -20 -20
-18 -20 -20 -20 -20 -20 -20 -20 -20 -20 -20 -20 -20 -20 -20 -20 -20 -20 -20 -20 -20 -20 -20 -20 -20 -20 -20 -20 -20 -20 -20 26 22 -5 -18 36 22 -20 -20 -20 -20 -20 -20 -20 -20
-20 -20 -20 -20 -20 -20 -20 -20 -20 -20 -20 -20 -20 -20 -20 -20 -20 -20 -20 -20 -20 -20 -20 -20 -20 -20 -20 -20 -20 -20 -20 -3 4 0 -6 12 13 -20 -20 -20 -20 -20 -20 -20 -20
-20 -20 -20 -20 -20 -20 -20 -20 -20 -20 -20 -20 -20 -20 -20 -20 -20 -20 -20 -20 -20 -20 -20 -20 -20 -20 -20 -20 -20 -20 -20 -20 12 9 -1 23 25 20 -20 -20 -20 -20 -20 -20 -20
-20 -20 -20 -20 -20 -20 -20 -20 -20 -20 -20 -20 -20 -20 -20 -20 -20 -20 -20 -20 -20 -20 -20 -20 -20 -20 -20 -20 -20 -20 -20 -20 -20 -20 -5 20 31 29 8 -20 -20 -20 -20 -20 -20
-20 -20 -20 -20 -20 -20 -20 -20 -20 -20 -20 -20 -20 -20 -20 -20 -20 -20 -20 -20 -20 -20 -20 -20 -20 -20 -11 -20 -20 -20 -20 -20 -20 3 23 1 33 3 -20 -20 -20 -20 -20 -20 -20
-20 -20 -20 -20 -20 -20 -20 -20 -20 -20 -20 -20 -20 -20 -20 -20 -20 -20 -20 -20 -20 -20 -20 -20 -20 -20 -20 -12 13 -19 -20 -20 -20 -20 6 33 2 -20 20 -14 -20 -20 -20 -20 -20
-20 -20 -20 -20 -20 -20 -20 -20 -20 -20 -14 -20 -20 -20 -20 -20 -20 -20 -20 -20 -20 -20 -20 -20 -20 -20 -20 21 -17 -20 11 -20 -20 -20 15 25 25 26 29 -14 -20 -20 -20 -20 -20
-20 -20 -20 -20 -20 -20 -20 -20 -20 -20 -20 -20 -20 -12 -20 -18 15 6 -3 -20 -20 -20 -20 -20 -20 -20 -20 -20 -20 -20 -20 -20 -20 -20 -20 -15 23 28 46 22 -19 -20 -20 -20 -20
-20 -20 -20 -20 -20 -20 -13 -20 -20 -20 -20 35 5 11 -18 -12 32 45 35 -14 -20 -20 -20 -20 -20 -20 -20 -20 -20 -20 -20 -17 -20 -20 -14 34 30 36 18 -7 -20 -20 -20 -20 -20
Wind_Speed
11 12 11 10 8 9 9 9 9 10 10 11 11 13 14 16 20 10 13 0 3 7 10 15 10 10 7 4 4 8 5 5 16 2 9 8 5 5 3 10 4 4 7 21 20
11 12 11 12 10 9 9 9 9 9 10 10 11 13 14 14 15 18 11 11 2 5 11 12 9 7 6 4 6 10 5 9 7 9 10 9 7 10 8 12 13 11 8 19 20
11 12 12 11 11 10 9 9 9 9 9 10 11 13 14 15 14 22 8 8 7 9 15 11 11 13 8 6 5 2 9 4 5 10 10 7 6 4 5 18 5 20 15 17 18
12 11 13 12 12 10 10 9 9 9 9 9 11 13 13 11 6 10 5 5 9 14 14 13 11 12 7 6 5 7 4 2 5 3 2 3 5 4 8 11 10 22 18 17 17
12 11 11 13 12 11 10 9 8 8 9 9 11 11 11 10 15 10 7 11 13 14 14 11 11 5 7 1 4 8 3 1 1 4 4 3 3 4 8 11 5 14 18 15 16
12 12 12 12 12 11 10 9 8 8 8 9 10 11 11 15 6 3 4 14 15 16 14 12 5 6 8 2 9 3 5 6 2 2 5 1 2 6 9 5 3 9 15 15 16
12 13 12 12 13 12 11 8 7 8 8 10 10 9 13 11 2 8 8 13 14 16 14 12 5 12 3 7 2 8 10 10 3 2 4 5 6 4 3 1 6 10 11 10 17
12 13 13 13 12 12 10 8 7 8 10 11 9 11 10 7 7 7 10 10 11 13 12 4 6 12 11 2 11 13 12 7 8 5 6 11 7 5 4 6 8 10 12 8 4
12 13 14 13 12 13 8 7 9 10 10 9 10 11 12 6 12 14 15 15 14 11 9 1 11 16 10 14 13 12 7 20 14 3 1 9 8 5 3 4 6 8 9 10 9
11 12 13 13 11 11 7 9 5 9 9 9 10 9 10 13 15 17 14 16 16 13 13 13 11 15 15 17 4 7 14 8 1 7 5 3 4 5 5 3 8 11 8 9 8
12 11 10 12 11 10 9 7 8 9 13 10 8 9 7 8 9 14 16 13 17 16 17 18 15 15 20 6 7 8 3 6 9 4 5 1 3 5 7 5 4 2 4 5 9
11 11 10 10 9 9 9 10 10 9 8 23 9 13 4 7 13 17 18 18 17 17 20 14 17 19 5 0 6 8 8 9 8 5 10 5 5 5 7 3 1 9 7 12 10
12 11 10 10 8 5 12 13 6 9 9 16 18 13 11 13 16 20 21 20 20 21 21 20 15 16 4 10 12 13 14 5 3 7 11 7 6 6 6 7 6 11 13 14 15
13 12 10 10 5 8 14 15 11 7 9 16 14 11 11 14 15 18 19 18 14 21 22 16 9 3 9 12 14 15 1 6 10 11 3 16 6 14 11 11 8 11 13 15 11
13 11 9 7 13 8 9 6 6 6 9 19 18 13 15 20 16 15 18 17 17 20 18 16 19 15 13 14 15 11 5 12 12 15 17 7 6 15 11 12 12 14 13 14 12
14 10 7 7 8 13 4 5 8 10 7 10 13 14 17 19 15 19 17 16 14 15 18 19 12 11 16 15 8 11 10 14 14 17 11 4 17 6 19 11 13 14 14 14 15
14 11 9 10 1 7 8 9 9 13 12 13 15 21 20 15 17 20 21 19 17 16 19 16 15 11 14 8 14 15 15 5 10 13 2 14 12 8 23 13 14 15 16 16 14
13 9 13 13 6 8 8 10 12 15 9 10 14 20 20 21 18 18 20 19 20 18 14 15 17 18 15 18 16 17 19 9 10 9 5 18 4 10 15 11 16 17 16 16 16
5 8 7 9 9 6 11 13 12 5 4 7 15 19 19 20 13 18 21 20 20 19 19 17 18 23 22 15 18 17 17 22 22 15 12 8 5 13 15 15 12 19 18 17 16
7 8 6 9 11 9 11 17 6 6 7 9 13 16 17 20 12 16 19 20 20 21 19 7 11 16 21 19 21 19 13 10 17 16 14 1 15 16 16 16 15 18 18 17 16
9 7 7 10 8 9 11 16 1 6 7 10 15 13 16 15 17 16 13 10 21 19 17 18 15 13 20 15 17 13 15 18 13 3 11 5 9 19 17 18 18 17 17 16 15
8 3 8 8 9 11 13 13 6 6 8 7 9 8 12 15 17 17 15 16 14 17 22 18 12 13 18 16 19 21 15 19 14 8 8 15 5 18 13 19 18 17 16 16 13
5 7 7 9 8 12 15 2 9 9 9 7 10 11 9 13 12 12 13 9 5 19 21 16 10 12 17 19 9 12 17 17 19 18 8 7 4 13 17 20 18 18 17 16 14
8 6 7 9 13 15 16 12 15 13 10 8 10 4 7 12 14 10 13 8 8 15 11 15 16 14 12 14 10 18 19 20 21 16 9 10 13 6 15 21 20 18 16 15 13
6 5 4 10 12 11 3 4 11 11 11 8 10 13 11 8 14 14 14 15 10 7 14 19 17 18 19 4 10 4 19 20 21 22 19 3 12 8 11 20 19 18 18 18 16
7 6 2 8 2 8 6 12 12 11 4 12 15 9 10 12 18 6 15 10 13 16 16 19 17 15 21 17 11 10 15 17 15 17 11 16 9 16 29 12 14 17 18 19 18
7 5 6 3 9 11 6 0 5 3 10 14 4 11 12 6 14 13 10 6 12 16 16 17 15 17 15 18 14 12 16 13 12 15 13 13 11 30 18 13 14 16 17 17 18
Wind_Direction
355 350 346 337 328 315 303 299 299 303 304 308 312 312 314 314 301 242 251 26 156 344 307 275 253 256 266 242 283 262 278 54 70 32 111 123 178 141 327 116 88 72 35 132 147
354 352 347 343 336 321 308 299 297 299 303 304 307 308 309 317 283 258 237 122 78 308 250 263 307 308 248 190 193 275 80 51 5 48 123 129 258 155 221 155 141 101 83 139 155
352 349 346 342 333 321 311 300 297 295 300 301 304 305 305 305 265 243 77 112 187 247 261 286 280 269 280 225 137 237 50 97 108 10 341 93 193 311 266 5 190 139 147 151 164
351 346 342 341 337 324 311 298 295 291 295 297 299 301 308 264 232 82 108 157 196 228 249 265 258 252 257 202 141 211 125 104 14 43 332 311 345 306 318 165 17 127 147 161 173
348 343 343 337 337 329 316 298 291 286 290 291 295 303 284 220 255 111 158 163 187 208 236 245 267 281 225 209 207 232 151 216 217 310 279 285 54 12 357 342 321 112 147 172 178
344 342 342 337 336 331 320 303 286 281 284 286 290 301 241 249 87 123 193 172 183 206 221 242 282 329 294 244 258 34 257 257 173 291 91 182 117 256 42 345 184 151 156 173 188
344 341 340 338 335 334 320 297 280 276 275 280 285 273 260 245 312 172 194 194 188 206 220 222 288 270 341 192 233 266 251 213 178 358 70 145 128 52 42 89 127 173 117 151 204
340 338 335 333 331 327 312 290 274 265 269 273 272 255 263 216 237 214 218 196 189 215 258 187 257 274 267 274 235 244 225 203 108 315 121 242 131 122 148 161 153 136 161 173 179
337 336 333 331 329 326 302 278 262 263 260 260 236 234 247 115 209 214 207 191 185 199 219 233 251 253 212 234 217 213 296 135 215 69 189 230 116 112 186 156 145 147 181 194 190
336 332 330 332 327 321 290 269 305 243 223 214 267 243 237 207 189 187 198 205 189 186 202 219 231 231 233 231 266 255 177 177 43 97 234 122 90 150 173 199 175 196 221 120 164
331 327 329 330 327 313 277 197 197 190 208 226 191 252 129 132 151 192 183 213 192 197 209 205 224 225 227 105 181 278 301 277 118 146 236 33 129 163 160 184 191 249 17 82 137
323 320 315 323 321 313 271 243 25 350 246 220 245 252 280 202 185 192 182 201 202 203 213 190 234 236 91 36 255 257 241 250 132 177 252 170 149 161 178 132 151 108 126 135 133
315 312 311 319 320 252 236 231 334 335 256 167 206 218 190 209 203 185 191 202 201 214 204 230 193 246 161 215 228 233 246 263 167 206 236 193 100 292 170 140 130 122 133 151 148
313 309 307 315 276 202 226 236 250 291 269 149 189 206 186 206 218 179 199 203 200 217 220 231 236 208 242 238 238 248 129 257 270 240 148 267 221 246 186 142 165 147 158 164 157
307 304 293 264 324 225 51 155 218 248 257 139 148 120 174 205 158 190 186 209 225 215 225 205 234 179 230 227 216 267 249 264 240 251 230 199 291 324 170 161 154 159 167 161 163
298 281 286 208 229 268 279 206 232 229 244 150 145 186 174 205 175 164 193 225 232 225 225 237 201 241 232 223 247 267 246 243 238 244 240 243 259 73 290 127 147 154 162 148 159
290 255 226 308 308 182 215 210 216 244 124 153 173 173 190 185 199 174 190 201 208 214 213 217 236 206 253 235 202 228 244 237 255 228 104 239 269 176 253 142 146 153 156 159 157
295 219 205 243 229 238 214 215 249 214 208 138 173 174 196 177 197 177 195 202 216 219 201 205 210 203 197 234 213 220 243 114 256 321 39 247 143 175 161 128 139 149 156 158 163
320 197 157 196 241 216 219 219 220 234 125 178 170 183 198 180 201 200 204 214 202 224 240 194 228 195 218 209 245 239 237 135 236 260 212 63 130 127 137 146 159 150 157 164 167
266 202 127 139 181 217 231 246 300 13 308 280 195 191 193 182 211 196 197 210 217 206 246 268 214 209 190 220 221 254 288 254 229 220 272 73 286 126 165 151 169 159 164 169 173
251 202 118 162 197 218 226 235 240 169 267 252 221 183 207 190 201 192 203 216 211 195 222 250 236 167 192 204 222 205 248 258 284 54 287 123 325 316 163 167 170 169 166 168 169
275 209 144 184 208 215 229 247 8 242 190 269 308 279 224 213 196 229 231 211 189 205 205 227 220 214 189 212 226 246 238 243 250 217 155 249 196 254 205 172 174 163 170 159 158
256 104 165 223 234 193 236 263 233 257 232 220 225 242 217 225 194 229 201 174 189 212 200 208 242 239 196 205 195 254 249 276 274 244 72 350 200 227 167 169 176 169 161 152 154
275 148 158 211 271 279 206 216 217 199 281 297 302 284 247 185 202 198 222 145 183 211 185 223 236 251 220 220 216 210 228 246 257 266 118 257 232 176 201 172 172 168 163 155 167
248 6 109 184 230 248 321 297 213 229 195 208 237 249 208 216 216 204 214 147 199 168 176 220 227 247 263 213 250 240 257 232 236 253 255 152 330 25 261 164 166 162 162 163 169
315 334 256 306 16 210 166 233 232 227 257 210 238 208 231 245 317 180 200 168 186 178 196 206 241 241 252 255 219 260 269 265 244 248 265 56 333 85 259 141 162 170 173 169 169
1 272 274 165 222 222 203 315 250 344 262 259 8 326 280 326 9 245 123 197 164 188 202 219 226 229 243 232 247 241 258 256 254 237 266 180 154 182 191 152 173 173 176 171 170